GW5948 Weather Reports


time (UTC)temp
C
wind
direction
speed
KPH
gust
KPH
rain 1hr
cm
rain 24hr
cm
rain mn
cm
humidity
%
barometer
mb
20260506134022 27 161 9.7 20.9 0.00 0.00 0.00 30 1010.6
20260506133018 27 161 11.3 19.3 0.00 0.00 0.00 31 1010.6
20260506132019 27 168 11.3 19.3 0.00 0.00 0.00 30 1010.6
20260506131019 27 183 11.3 22.5 0.00 0.00 0.00 30 1010.8
20260506130020 27 171 11.3 20.9 0.00 0.00 0.00 30 1010.7
20260506125040 27 159 9.7 20.9 0.00 0.00 0.00 30 1010.8
20260506124022 27 153 11.3 20.9 0.00 0.00 0.00 29 1010.9
20260506123102 26 172 11.3 19.3 0.00 0.00 0.00 30 1010.9
20260506122039 26 147 11.3 24.1 0.00 0.00 0.00 29 1011.1
20260506121020 -17 0.0 0.0 0.00 0.00 0.00
20260506120020 -17 0.0 0.0 0.00 0.00 0.00
20260506115021 -17 0.0 0.0 0.00 0.00 0.00
20260506114020 26 152 12.9 20.9 0.00 0.00 0.00 27 1011.5
20260506113020 26 150 11.3 24.1 0.00 0.00 0.00 27 1011.5
20260506112021 26 149 9.7 24.1 0.00 0.00 0.00 28 1011.6
20260506111019 26 151 9.7 20.9 0.00 0.00 0.00 30 1011.6
20260506110019 26 141 11.3 24.1 0.00 0.00 0.00 32 1011.7
20260506105022 26 148 8.0 20.9 0.00 0.00 0.00 32 1011.6
20260506104023 26 142 11.3 20.9 0.00 0.00 0.00 32 1011.8
20260506103020 26 134 11.3 20.9 0.00 0.00 0.00 32 1011.8
20260506102019 26 177 11.3 22.5 0.00 0.00 0.00 33 1011.9
20260506101021 25 136 9.7 20.9 0.00 0.00 0.00 33 1012.0
20260506100021 25 138 9.7 17.7 0.00 0.00 0.00 34 1012.0
20260506095019 25 130 11.3 19.3 0.00 0.00 0.00 34 1012.1
20260506094020 24 133 11.3 20.9 0.00 0.00 0.00 35 1012.2
20260506093020 24 174 11.3 22.5 0.00 0.00 0.00 36 1012.1
20260506092020 24 127 8.0 16.1 0.00 0.00 0.00 36 1012.2
20260506091020 24 110 8.0 14.5 0.00 0.00 0.00 37 1012.3
20260506090021 23 147 9.7 16.1 0.00 0.00 0.00 38 1012.2
20260506085040 23 122 8.0 17.7 0.00 0.00 0.00 38 1012.3
20260506084019 22 141 8.0 19.3 0.00 0.00 0.00 40 1012.2
20260506083019 22 130 11.3 20.9 0.00 0.00 0.00 40 1012.2
20260506082021 21 116 11.3 20.9 0.00 0.00 0.00 41 1012.3
20260506081020 21 137 11.3 19.3 0.00 0.00 0.00 42 1012.2
20260506073021 19 119 11.3 19.3 0.00 0.00 0.00 45 1012.3
20260506072046 19 121 9.7 17.7 0.00 0.00 0.00 46 1012.3
20260506071020 18 127 9.7 17.7 0.00 0.00 0.00 46 1012.3
20260506062020 16 124 6.4 14.5 0.00 0.00 0.00 50 1012.4
20260506061021 16 124 9.7 17.7 0.00 0.00 0.00 50 1012.5
20260506051019 13 104 6.4 16.1 0.00 0.00 0.00 57 1012.3
20260506045020 12 119 6.4 11.3 0.00 0.00 0.00 60 1012.3
20260506044044 12 63 4.8 9.7 0.00 0.00 0.00 63 1012.3
20260506043020 12 111 6.4 12.9 0.00 0.00 0.00 63 1012.4
20260506042021 11 109 4.8 8.0 0.00 0.00 0.00 64 1012.3
20260506041023 11 64 3.2 9.7 0.00 0.00 0.00 65 1012.2
20260506040020 10 112 6.4 9.7 0.00 0.00 0.00 65 1012.2
20260506035023 10 131 3.2 6.4 0.00 0.00 0.00 66 1012.2
20260506034020 10 118 4.8 9.7 0.00 0.00 0.00 66 1012.1
20260506033022 10 123 4.8 8.0 0.00 0.00 0.00 67 1012.0
20260506032020 10 107 1.6 6.4 0.00 0.00 0.00 67 1012.1
20260506031020 9 114 8.0 14.5 0.00 0.00 0.00 67 1011.9
20260506025021 9 90 8.0 9.7 0.00 0.00 0.00 68 1011.6
20260506024100 10 101 4.8 8.0 0.00 0.00 0.00 68 1011.6
20260506023022 10 101 6.4 9.7 0.00 0.00 0.00 68 1011.6
20260506022021 10 112 8.0 14.5 0.00 0.00 0.00 68 1011.6
20260506021019 10 109 8.0 12.9 0.00 0.00 0.00 69 1011.4
20260506020021 10 101 8.0 17.7 0.00 0.00 0.00 69 1011.3
20260506015021 10 84 9.7 17.7 0.00 0.00 0.00 69 1011.4
20260506014040 10 102 11.3 16.1 0.00 0.00 0.00 71 1011.5
20260506013019 10 95 6.4 11.3 0.00 0.00 0.00 71 1011.5
20260506012019 10 95 8.0 11.3 0.00 0.00 0.00 72 1011.4
20260506011021 11 92 8.0 14.5 0.00 0.00 0.00 70 1011.4
20260506010041 11 101 9.7 16.1 0.00 0.00 0.00 69 1011.4
20260506005042 11 115 9.7 14.5 0.00 0.00 0.00 69 1011.3
20260506004020 11 116 11.3 17.7 0.00 0.00 0.00 69 1011.3
20260506003102 11 116 11.3 17.7 0.00 0.00 0.00 70 1011.1
20260506002022 11 114 11.3 16.1 0.00 0.00 0.00 70 1011.2
20260506001019 12 109 11.3 16.1 0.00 0.00 0.00 69 1011.1
20260506000020 12 120 8.0 12.9 0.00 0.00 0.00 69 1011.2
20260505235020 12 111 8.0 14.5 0.00 0.00 0.00 68 1011.1
20260505234019 12 114 8.0 17.7 0.00 0.00 0.00 67 1011.0
20260505233021 12 114 9.7 19.3 0.00 0.00 0.00 67 1011.1
20260505232020 12 104 12.9 19.3 0.00 0.00 0.00 66 1011.0
20260505231021 13 108 11.3 20.9 0.00 0.00 0.00 65 1011.1
20260505230021 13 106 14.5 20.9 0.00 0.00 0.00 64 1011.0
20260505225020 13 107 12.9 20.9 0.00 0.00 0.00 63 1011.0
20260505224019 13 103 12.9 19.3 0.00 0.00 0.00 63 1011.1
20260505223019 13 97 9.7 16.1 0.00 0.00 0.00 62 1011.1
20260505222020 14 98 9.7 12.9 0.00 0.00 0.00 60 1011.0
20260505221020 15 96 8.0 14.5 0.00 0.00 0.00 58 1011.2
20260505220020 16 96 8.0 11.3 0.00 0.00 0.00 55 1011.2
20260505215020 16 112 8.0 14.5 0.00 0.00 0.00 53 1011.1
20260505214020 16 122 8.0 14.5 0.00 0.00 0.00 53 1011.1
20260505213039 16 121 8.0 16.1 0.00 0.00 0.00 51 1011.0
20260505212041 17 125 6.4 12.9 0.00 0.00 0.00 50 1011.1
20260505211020 17 131 6.4 14.5 0.00 0.00 0.00 49 1011.0
20260505210020 17 139 4.8 9.7 0.00 0.00 0.00 48 1011.1
20260505205018 17 148 4.8 9.7 0.00 0.00 0.00 47 1011.0
20260505204019 18 140 8.0 14.5 0.00 0.00 0.00 46 1011.0
20260505203019 18 132 6.4 11.3 0.00 0.00 0.00 46 1011.0
20260505202040 18 128 6.4 11.3 0.00 0.00 0.00 46 1011.0
20260505201020 18 148 8.0 12.9 0.00 0.00 0.00 46 1011.1
20260505200019 18 154 8.0 11.3 0.00 0.00 0.00 47 1011.0
20260505195039 18 160 8.0 11.3 0.00 0.00 0.00 47 1010.9
20260505194019 18 156 6.4 11.3 0.00 0.00 0.00 47 1010.9
20260505193018 18 154 8.0 12.9 0.00 0.00 0.00 47 1010.8
20260505192018 19 150 6.4 14.5 0.00 0.00 0.00 46 1010.8
20260505191017 19 155 8.0 14.5 0.00 0.00 0.00 45 1010.8
20260505190018 19 156 8.0 12.9 0.00 0.00 0.00 45 1010.7
20260505185018 19 143 6.4 9.7 0.00 0.00 0.00 45 1010.7
20260505184019 20 194 6.4 9.7 0.00 0.00 0.00 42 1010.6
20260505183018 21 156 8.0 12.9 0.00 0.00 0.00 41 1010.5
20260505182038 21 145 6.4 14.5 0.00 0.00 0.00 39 1010.4
20260505181019 21 135 8.0 14.5 0.00 0.00 0.00 38 1010.4
20260505180017 21 132 4.8 6.4 0.00 0.00 0.00 35 1010.3
20260505175017 22 123 4.8 6.4 0.00 0.00 0.00 34 1010.1
20260505174017 22 110 4.8 9.7 0.00 0.00 0.00 33 1010.1
20260505173018 22 117 4.8 6.4 0.00 0.00 0.00 32 1010.1
20260505172017 23 103 4.8 6.4 0.00 0.00 0.00 31 1010.1
20260505171017 23 117 4.8 6.4 0.00 0.00 0.00 31 1010.0
20260505165038 25 113 4.8 6.4 0.00 0.00 0.00 30 1010.1
20260505164037 25 104 3.2 4.8 0.00 0.00 0.00 31 1010.0
20260505163017 25 106 1.6 3.2 0.00 0.00 0.00 30 1010.1
20260505162017 25 109 3.2 6.4 0.00 0.00 0.00 29 1010.1
20260505161018 25 102 4.8 8.0 0.00 0.00 0.00 28 1010.1
20260505153017 26 120 4.8 9.7 0.00 0.00 0.00 25 1010.3
20260505152017 26 122 4.8 11.3 0.00 0.00 0.00 25 1010.3
20260505151018 27 114 3.2 11.3 0.00 0.00 0.00 25 1010.3